Content
SEND FEEDBACK

Daily
Averages
Monthly
Summary
United States of America

ANN ARBOR, MICHIGAN


Home > North America > United States > Michigan
Elevation: 759 feet     Latitude: 42 17N     Longitude: 083 43W

WEATHER
 
SELECT A DAY
Number of Records: 203,899;   Date Range: 1/1/95 - 8/28/14
 
SHARE

PRINT THIS DATA

[ ← Previous Day ]
WEATHER ALMANAC - JUNE 26, 2013
[ Next Day → ]
[ °C ]   °F
We're sorry. There is no daily almanac available for Ann Arbor, Michigan on June 26, 2013.
WEATHER BY HOUR - JUNE 26, 2013
[ °C ]   °F
Local TimeTemperatureDewpointHumidityBarometerVisibilityWind DirectionWind SpeedGust SpeedPrecipitationEventsConditions
12:42 AM68.0 °F66.2 °F94 %29.91 in4.0 miSW (230°)9.2 mph0.15 inRain-ThunderstormRain
12:53 AM68.0 °F66.0 °F93 %29.88 in9.0 miSSW (200°)9.2 mph0.16 inRain-ThunderstormLight Rain
1:03 AM68.0 °F66.2 °F94 %29.90 in10.0 miWSW (240°)8.1 mph0.00 inRainLight Rain
1:53 AM66.9 °F66.0 °F97 %29.83 in10.0 miSW (230°)6.9 mph0.02 inRainLight Rain
2:53 AM66.9 °F64.9 °F93 %29.80 in10.0 miCalm0.01 inClear
3:53 AM66.0 °F64.0 °F93 %29.80 in10.0 miCalmClear
4:53 AM64.0 °F63.0 °F96 %29.83 in4.0 miCalmPartly Cloudy
5:00 AM64.4 °F64.4 °F100 %29.85 in1.8 miCalmPartly Cloudy
5:10 AM64.4 °F64.4 °F100 %29.85 in3.0 miSE (140°)3.5 mphMostly Cloudy
5:42 AM66.2 °F64.4 °F94 %29.85 in6.0 miSSE (150°)4.6 mphMostly Cloudy
5:51 AM66.2 °F64.4 °F94 %29.85 in6.0 miCalmMostly Cloudy
5:53 AM66.0 °F64.9 °F96 %29.84 in6.0 miCalmMostly Cloudy
6:35 AM66.2 °F64.4 °F94 %29.86 in5.0 miCalmScattered Clouds
6:53 AM66.9 °F64.9 °F93 %29.85 in8.0 miCalmClear
7:53 AM68.0 °F66.0 °F93 %29.85 in10.0 miSouth (190°)3.5 mphClear
8:53 AM71.1 °F66.9 °F87 %29.87 in10.0 miSW (230°)8.1 mphPartly Cloudy
9:36 AM71.6 °F66.2 °F83 %29.88 in10.0 miWSW (240°)6.9 mphMostly Cloudy
9:53 AM72.0 °F66.9 °F84 %29.86 in10.0 miVariable3.5 mphMostly Cloudy
10:42 AM73.4 °F66.2 °F78 %29.87 in10.0 miWSW (240°)3.5 mphScattered Clouds
10:53 AM73.0 °F66.9 °F81 %29.86 in10.0 miWSW (250°)5.8 mphPartly Cloudy
11:49 AM75.2 °F68.0 °F78 %29.88 in10.0 miWest (270°)8.1 mphMostly Cloudy
11:53 AM75.9 °F69.1 °F79 %29.87 in10.0 miWest (260°)10.4 mph26.5 mphMostly Cloudy
12:53 PM78.1 °F69.1 °F74 %29.86 in10.0 miWest (270°)9.2 mphMostly Cloudy
1:53 PM78.1 °F68.0 °F71 %29.82 in10.0 miCalmMostly Cloudy
2:17 PM80.6 °F69.8 °F70 %29.83 in10.0 miNorth (360°)3.5 mphScattered Clouds
2:38 PM78.8 °F69.8 °F74 %29.83 in10.0 miCalmMostly Cloudy
2:53 PM82.0 °F69.1 °F65 %29.81 in10.0 miVariable4.6 mphMostly Cloudy
3:02 PM80.6 °F69.8 °F70 %29.82 in10.0 miVariable3.5 mphScattered Clouds
3:53 PM80.1 °F69.1 °F69 %29.81 in10.0 miSouth (180°)5.8 mphMostly Cloudy
4:53 PM81.0 °F70.0 °F69 %29.80 in10.0 miSouth (170°)4.6 mphClear
5:53 PM81.0 °F69.1 °F67 %29.78 in10.0 miSE (140°)5.8 mphPartly Cloudy
6:53 PM81.0 °F66.9 °F62 %29.75 in10.0 miVariable3.5 mphClear
7:53 PM79.0 °F68.0 °F69 %29.76 in10.0 miSouth (170°)4.6 mphClear
8:53 PM78.1 °F68.0 °F71 %29.76 in10.0 miSouth (170°)4.6 mphClear
9:34 PM71.6 °F68.0 °F88 %29.80 in4.0 miWSW (250°)13.8 mph26.5 mph0.09 inRainHeavy Rain
9:43 PM71.6 °F68.0 °F88 %29.80 in6.0 miSW (230°)8.1 mph0.09 inRainLight Rain
9:53 PM71.1 °F68.0 °F90 %29.78 in4.0 miSW (220°)6.9 mph0.13 inRainRain
10:01 PM69.8 °F68.0 °F94 %29.78 in4.0 miSW (230°)5.8 mph0.02 inRainRain
10:53 PM70.0 °F68.0 °F93 %29.75 in8.0 miCalm0.07 inRainLight Rain
11:53 PM71.1 °F69.1 °F93 %29.75 in8.0 miCalm0.01 inOvercast
Hourly data recorded from KARB, located miles away from Ann Arbor, Michigan







STORIES FROM OUR PARTNERS